Regional Weather Roundup
Issued by NWS

Home | Current Version | Previous Version | Graphics & Text | Print | Product List | Glossary On
Versions: 1 2 3 4 5 6 7 8 9 10 11 12 13 14 15 16 17 18 19 20 21 22 23 24 25 26 27 28 29 30 31 32 33 34 35 36 37 38 39 40 41 42 43 44 45 46 47 48 49 50
000
ASUS43 KTOP 231208
RWRKS

WEATHER ROUNDUP FOR KANSAS
NATIONAL WEATHER SERVICE GOODLAND KS
600 AM CST THU FEB 23 2017

NOTE:  "FAIR" INDICATES FEW OR NO CLOUDS BELOW 12,000 FEET WITH NO
SIGNIFICANT WEATHER AND/OR OBSTRUCTIONS TO VISIBILITY.

KSZ001>006-013>018-027>032-041>047-231300-
NORTHWEST KANSAS

CITY           SKY/WX    TMP DP  RH WIND       PRES   REMARKS
GOODLAND       MOCLDY    33  30  88 NE17G25   29.60F WCI  22
6HR MIN TEMP:  31; 6HR MAX TEMP:  42;

HAYS             N/A     45  36  70 NE18      29.59S
HILL CITY      CLOUDY    42  37  82 E21G31    29.64F
6HR MIN TEMP:  41; 6HR MAX TEMP:  49;

RUSSELL        CLOUDY    46  37  71 E21       29.58F
6HR MIN TEMP:  46; 6HR MAX TEMP:  51;

$$

KSZ061>065-074>080-084>089-231300-
SOUTHWEST KANSAS

CITY           SKY/WX    TMP DP  RH WIND       PRES   REMARKS
DODGE CITY     CLOUDY    48  34  58 SE15      29.54F
6HR MIN TEMP:  47; 6HR MAX TEMP:  54; 6HR PCP: TRACE;

ELKHART          N/A     54  29  38 SW7         N/A
GARDEN CITY    CLOUDY    49  35  58 W6        29.53S
6HR MIN TEMP:  46; 6HR MAX TEMP:  53; 6HR PCP: TRACE;

GREAT BEND     CLOUDY    50  37  61 E25G32    29.54F
LIBERAL        CLOUDY    50  27  40 S6        29.57F
PRATT          MOCLDY    47  35  64 NE13      29.58F
6HR MIN TEMP:  46; 6HR MAX TEMP:  54;

$$

KSZ066>073-081>083-090>101-231300-
SOUTHEAST KANSAS

CITY           SKY/WX    TMP DP  RH WIND       PRES   REMARKS
CHANUTE        PTCLDY    51  48  89 E7        29.61F
6HR MIN TEMP:  44; 6HR MAX TEMP:  55;

COFFEYVILLE    CLEAR     51  49  92 E6        29.60F
6HR MIN TEMP:  46; 6HR MAX TEMP:  56;

HUTCHINSON     CLOUDY    52  38  58 NE16G22   29.61F
6HR MIN TEMP:  49; 6HR MAX TEMP:  57;

MEDICINE LODGE   N/A     49  42  77 N9        29.56F
NEWTON         PTCLDY    51  39  63 NE12      29.62R
PARSONS        PTCLDY    53  50  89 VRB3      29.60F
6HR MIN TEMP:  42; 6HR MAX TEMP:  53;

WICHITA INTL   PTCLDY    49  42  77 NE12      29.58S
6HR MIN TEMP:  44; 6HR MAX TEMP:  55;

WICHITA JABRA  PTCLDY    47  41  80 NE8       29.58F
6HR MIN TEMP:  46; 6HR MAX TEMP:  54;

WICHITA MCCONL CLOUDY    50  41  71 E9        29.57F
WINFIELD       PTCLDY    49  41  74 E6        29.57S
6HR MIN TEMP:  44; 6HR MAX TEMP:  52;

$$

KSZ007>012-019>026-033>040-048>060-102>105-231300-
NORTHEAST KANSAS

CITY           SKY/WX    TMP DP  RH WIND       PRES   REMARKS
CONCORDIA      CLOUDY    44  38  79 E14       29.68F
6HR MIN TEMP:  44; 6HR MAX TEMP:  51;

EMPORIA        PTCLDY    51  39  63 NE15      29.63F
6HR MIN TEMP:  49; 6HR MAX TEMP:  56;

LAWRENCE       CLOUDY    52  40  63 NE13      29.69F
6HR MIN TEMP:  42; 6HR MAX TEMP:  54;

MANHATTAN      CLOUDY    50  39  66 NE14      29.70S
6HR MIN TEMP:  50; 6HR MAX TEMP:  55; 6HR PCP: TRACE;

MARYSVILLE     CLOUDY    43  37  81 NE8       29.72F
OLATHE IND     MOCLDY    52  41  66 E15       29.69S
6HR MIN TEMP:  45; 6HR MAX TEMP:  56;

OLATHE EXE     CLOUDY    51  42  71 NE15      29.71R
6HR MIN TEMP:  51; 6HR MAX TEMP:  58;

SALINA         CLOUDY    52  38  58 NE14      29.66F
6HR MIN TEMP:  52; 6HR MAX TEMP:  57;

TOPEKA BILLARD CLOUDY    52  39  61 NE10      29.70F
6HR MIN TEMP:  50; 6HR MAX TEMP:  52;

TOPEKA FORBES  MOCLDY    53  38  56 NE9       29.69F
6HR MIN TEMP:  51; 6HR MAX TEMP:  54;

$$




USA.gov is the U.S. government's official web portal to all federal, state and local government web resources and services.